owner,sensor,date,latitude,longitude,vertical_datum,wind_speed,wind_to_direction,wind_speed_of_gust,qcFlag 
ADCP,ioos:station:wmo:42887:1,2011-05-01T00:00:00Z,28.1910,-88.4960,48.2,6.6,128.0,99.0,'11111222,11111222,11144222' 
ADCP,ioos:station:wmo:42887:1,2011-05-01T00:20:00Z,28.1910,-88.4960,48.2,6.6,129.0,99.0,'11111222,11111222,11144222' 
ADCP,ioos:station:wmo:42887:1,2011-05-01T00:40:00Z,28.1910,-88.4960,48.2,5.6,131.0,99.0,'11111222,11111222,11144222' 
ADCP,ioos:station:wmo:42887:1,2011-05-01T01:00:00Z,28.1910,-88.4960,48.2,6.4,127.0,99.0,'11111222,11111222,11144222' 
ADCP,ioos:station:wmo:42887:1,2011-05-01T01:20:00Z,28.1910,-88.4960,48.2,6.1,127.0,99.0,'11111222,11111222,11144222' 
ADCP,ioos:station:wmo:42887:1,2011-05-01T01:40:00Z,28.1910,-88.4960,48.2,6.8,140.0,99.0,'11111222,11111222,11144222' 
ADCP,ioos:station:wmo:42887:1,2011-05-01T02:00:00Z,28.1910,-88.4960,48.2,5.4,152.0,99.0,'11111222,11111222,11144222' 
ADCP,ioos:station:wmo:42887:1,2011-05-01T02:20:00Z,28.1910,-88.4960,48.2,5.5,132.0,99.0,'11111222,11111222,11144222' 
ADCP,ioos:station:wmo:42887:1,2011-05-01T02:40:00Z,28.1910,-88.4960,48.2,7.4,132.0,99.0,'11111222,11111222,11144222' 
ADCP,ioos:station:wmo:42887:1,2011-05-01T03:00:00Z,28.1910,-88.4960,48.2,7.4,125.0,99.0,'11111222,11111222,11144222' 
ADCP,ioos:station:wmo:42887:1,2011-05-01T03:20:00Z,28.1910,-88.4960,48.2,7.1,136.0,99.0,'11111222,11111222,11144222' 
ADCP,ioos:station:wmo:42887:1,2011-05-01T03:40:00Z,28.1910,-88.4960,48.2,7.4,149.0,99.0,'11111222,11111222,11144222' 
ADCP,ioos:station:wmo:42887:1,2011-05-01T04:00:00Z,28.1910,-88.4960,48.2,8.4,154.0,99.0,'11111222,11111222,11144222' 
ADCP,ioos:station:wmo:42887:1,2011-05-01T04:20:00Z,28.1910,-88.4960,48.2,9.0,150.0,99.0,'11111222,11111222,11144222' 
ADCP,ioos:station:wmo:42887:1,2011-05-01T04:40:00Z,28.1910,-88.4960,48.2,8.7,144.0,99.0,'11111222,11111222,11144222' 
ADCP,ioos:station:wmo:42887:1,2011-05-01T05:00:00Z,28.1910,-88.4960,48.2,8.8,146.0,99.0,'11111222,11111222,11144222' 
ADCP,ioos:station:wmo:42887:1,2011-05-01T05:20:00Z,28.1910,-88.4960,48.2,8.9,156.0,99.0,'11111222,11111222,11144222' 
ADCP,ioos:station:wmo:42887:1,2011-05-01T05:40:00Z,28.1910,-88.4960,48.2,8.1,156.0,99.0,'11111222,11111222,11144222' 
ADCP,ioos:station:wmo:42887:1,2011-05-01T06:00:00Z,28.1910,-88.4960,48.2,8.6,158.0,99.0,'11111222,11111222,11144222' 
ADCP,ioos:station:wmo:42887:1,2011-05-01T06:20:00Z,28.1910,-88.4960,48.2,8.0,153.0,99.0,'11111222,11111222,11144222' 
ADCP,ioos:station:wmo:42887:1,2011-05-01T06:40:00Z,28.1910,-88.4960,48.2,8.1,145.0,99.0,'11111222,11111222,11144222' 
ADCP,ioos:station:wmo:42887:1,2011-05-01T07:00:00Z,28.1910,-88.4960,48.2,6.5,148.0,99.0,'11111222,11111222,11144222' 
ADCP,ioos:station:wmo:42887:1,2011-05-01T07:20:00Z,28.1910,-88.4960,48.2,8.3,144.0,99.0,'11111222,11111222,11144222' 
ADCP,ioos:station:wmo:42887:1,2011-05-01T07:40:00Z,28.1910,-88.4960,48.2,6.5,151.0,99.0,'11111222,11111222,11144222' 
ADCP,ioos:station:wmo:42887:1,2011-05-01T08:00:00Z,28.1910,-88.4960,48.2,9.1,154.0,99.0,'11111222,11111222,11144222' 
ADCP,ioos:station:wmo:42887:1,2011-05-01T08:20:00Z,28.1910,-88.4960,48.2,8.7,154.0,99.0,'11111222,11111222,11144222' 
ADCP,ioos:station:wmo:42887:1,2011-05-01T08:40:00Z,28.1910,-88.4960,48.2,8.6,153.0,99.0,'11111222,11111222,11144222' 
ADCP,ioos:station:wmo:42887:1,2011-05-01T09:00:00Z,28.1910,-88.4960,48.2,7.9,151.0,99.0,'11111222,11111222,11144222' 
ADCP,ioos:station:wmo:42887:1,2011-05-01T09:20:00Z,28.1910,-88.4960,48.2,8.7,154.0,99.0,'11111222,11111222,11144222' 
ADCP,ioos:station:wmo:42887:1,2011-05-01T09:40:00Z,28.1910,-88.4960,48.2,9.0,155.0,99.0,'11111222,11111222,11144222' 
ADCP,ioos:station:wmo:42887:1,2011-05-01T10:00:00Z,28.1910,-88.4960,48.2,8.9,154.0,99.0,'11111222,11111222,11144222' 
ADCP,ioos:station:wmo:42887:1,2011-05-01T10:20:00Z,28.1910,-88.4960,48.2,9.1,155.0,99.0,'11111222,11111222,11144222' 
ADCP,ioos:station:wmo:42887:1,2011-05-01T10:40:00Z,28.1910,-88.4960,48.2,7.9,158.0,99.0,'11111222,11111222,11144222' 
ADCP,ioos:station:wmo:42887:1,2011-05-01T11:00:00Z,28.1910,-88.4960,48.2,7.6,160.0,99.0,'11111222,11111222,11144222' 
ADCP,ioos:station:wmo:42887:1,2011-05-01T11:20:00Z,28.1910,-88.4960,48.2,8.5,161.0,99.0,'11111222,11111222,11144222' 
ADCP,ioos:station:wmo:42887:1,2011-05-01T11:40:00Z,28.1910,-88.4960,48.2,9.9,167.0,99.0,'11111222,11111222,11144222' 
ADCP,ioos:station:wmo:42887:1,2011-05-01T12:00:00Z,28.1910,-88.4960,48.2,9.1,161.0,99.0,'11111222,11111222,11144222' 
ADCP,ioos:station:wmo:42887:1,2011-05-01T12:20:00Z,28.1910,-88.4960,48.2,9.9,166.0,99.0,'11111222,11111222,11144222' 
ADCP,ioos:station:wmo:42887:1,2011-05-01T12:40:00Z,28.1910,-88.4960,48.2,10.9,172.0,99.0,'11111222,11111222,11144222' 
ADCP,ioos:station:wmo:42887:1,2011-05-01T13:00:00Z,28.1910,-88.4960,48.2,9.5,175.0,99.0,'11111222,11111222,11144222' 
ADCP,ioos:station:wmo:42887:1,2011-05-01T13:20:00Z,28.1910,-88.4960,48.2,8.7,173.0,99.0,'11111222,11111222,11144222' 
ADCP,ioos:station:wmo:42887:1,2011-05-01T13:40:00Z,28.1910,-88.4960,48.2,8.7,169.0,99.0,'11111222,11111222,11144222' 
ADCP,ioos:station:wmo:42887:1,2011-05-01T14:00:00Z,28.1910,-88.4960,48.2,9.7,175.0,99.0,'11111222,11111222,11144222' 
ADCP,ioos:station:wmo:42887:1,2011-05-01T14:20:00Z,28.1910,-88.4960,48.2,9.1,172.0,99.0,'11111222,11111222,11144222' 
ADCP,ioos:station:wmo:42887:1,2011-05-01T14:40:00Z,28.1910,-88.4960,48.2,9.0,169.0,99.0,'11111222,11111222,11144222' 
ADCP,ioos:station:wmo:42887:1,2011-05-01T15:00:00Z,28.1910,-88.4960,48.2,7.3,160.0,99.0,'11111222,11111222,11144222' 
ADCP,ioos:station:wmo:42887:1,2011-05-01T15:20:00Z,28.1910,-88.4960,48.2,7.5,159.0,99.0,'11111222,11111222,11144222' 
ADCP,ioos:station:wmo:42887:1,2011-05-01T15:40:00Z,28.1910,-88.4960,48.2,7.3,150.0,99.0,'11111222,11111222,11144222' 
ADCP,ioos:station:wmo:42887:1,2011-05-01T16:00:00Z,28.1910,-88.4960,48.2,7.2,150.0,99.0,'11111222,11111222,11144222' 
ADCP,ioos:station:wmo:42887:1,2011-05-01T16:20:00Z,28.1910,-88.4960,48.2,6.0,149.0,99.0,'11111222,11111222,11144222' 
ADCP,ioos:station:wmo:42887:1,2011-05-01T16:40:00Z,28.1910,-88.4960,48.2,6.4,134.0,99.0,'11111222,11111222,11144222' 
ADCP,ioos:station:wmo:42887:1,2011-05-01T17:00:00Z,28.1910,-88.4960,48.2,6.1,140.0,99.0,'11111222,11111222,11144222' 
ADCP,ioos:station:wmo:42887:1,2011-05-01T17:20:00Z,28.1910,-88.4960,48.2,5.5,132.0,99.0,'11111222,11111222,11144222' 
ADCP,ioos:station:wmo:42887:1,2011-05-01T17:40:00Z,28.1910,-88.4960,48.2,5.6,132.0,99.0,'11111222,11111222,11144222' 
ADCP,ioos:station:wmo:42887:1,2011-05-01T18:00:00Z,28.1910,-88.4960,48.2,6.0,126.0,99.0,'11111222,11111222,11144222' 
ADCP,ioos:station:wmo:42887:1,2011-05-01T18:20:00Z,28.1910,-88.4960,48.2,4.9,126.0,99.0,'11111222,11111222,11144222' 
ADCP,ioos:station:wmo:42887:1,2011-05-01T18:40:00Z,28.1910,-88.4960,48.2,5.2,128.0,99.0,'11111222,11111222,11144222' 
ADCP,ioos:station:wmo:42887:1,2011-05-01T19:00:00Z,28.1910,-88.4960,48.2,4.9,123.0,99.0,'11111222,11111222,11144222' 
ADCP,ioos:station:wmo:42887:1,2011-05-01T19:20:00Z,28.1910,-88.4960,48.2,5.3,123.0,99.0,'11111222,11111222,11144222' 
ADCP,ioos:station:wmo:42887:1,2011-05-01T19:40:00Z,28.1910,-88.4960,48.2,5.0,126.0,99.0,'11111222,11111222,11144222' 
ADCP,ioos:station:wmo:42887:1,2011-05-01T20:00:00Z,28.1910,-88.4960,48.2,5.5,123.0,99.0,'11111222,11111222,11144222' 
ADCP,ioos:station:wmo:42887:1,2011-05-01T20:20:00Z,28.1910,-88.4960,48.2,5.2,122.0,99.0,'11111222,11111222,11144222' 
ADCP,ioos:station:wmo:42887:1,2011-05-01T20:40:00Z,28.1910,-88.4960,48.2,5.7,127.0,99.0,'11111222,11111222,11144222' 
ADCP,ioos:station:wmo:42887:1,2011-05-01T21:00:00Z,28.1910,-88.4960,48.2,6.0,131.0,99.0,'11111222,11111222,11144222' 
ADCP,ioos:station:wmo:42887:1,2011-05-01T21:20:00Z,28.1910,-88.4960,48.2,5.7,122.0,99.0,'11111222,11111222,11144222' 
ADCP,ioos:station:wmo:42887:1,2011-05-01T21:40:00Z,28.1910,-88.4960,48.2,5.7,122.0,99.0,'11111222,11111222,11144222' 
ADCP,ioos:station:wmo:42887:1,2011-05-01T22:00:00Z,28.1910,-88.4960,48.2,5.3,119.0,99.0,'11111222,11111222,11144222' 
ADCP,ioos:station:wmo:42887:1,2011-05-01T22:20:00Z,28.1910,-88.4960,48.2,5.9,115.0,99.0,'11111222,11111222,11144222' 
ADCP,ioos:station:wmo:42887:1,2011-05-01T22:40:00Z,28.1910,-88.4960,48.2,6.2,123.0,99.0,'11111222,11111222,11144222' 
ADCP,ioos:station:wmo:42887:1,2011-05-01T23:20:00Z,28.1910,-88.4960,48.2,6.1,119.0,99.0,'11111222,11111222,11144222' 
ADCP,ioos:station:wmo:42887:1,2011-05-01T23:40:00Z,28.1910,-88.4960,48.2,6.6,128.0,99.0,'11111222,11111222,11144222' 
ADCP,ioos:station:wmo:42887:1,2011-05-02T00:00:00Z,28.1910,-88.4960,48.2,6.5,118.0,99.0,'11111222,11111222,11144222' 
ADCP,ioos:station:wmo:42887:1,2011-05-02T00:20:00Z,28.1910,-88.4960,48.2,7.5,136.0,99.0,'11111222,11111222,11144222' 
ADCP,ioos:station:wmo:42887:1,2011-05-02T00:40:00Z,28.1910,-88.4960,48.2,7.5,125.0,99.0,'11111222,11111222,11144222' 
ADCP,ioos:station:wmo:42887:1,2011-05-02T01:00:00Z,28.1910,-88.4960,48.2,9.0,134.0,99.0,'11111222,11111222,11144222' 
ADCP,ioos:station:wmo:42887:1,2011-05-02T01:20:00Z,28.1910,-88.4960,48.2,6.3,139.0,99.0,'11111222,11111222,11144222' 
ADCP,ioos:station:wmo:42887:1,2011-05-02T01:40:00Z,28.1910,-88.4960,48.2,7.6,135.0,99.0,'11111222,11111222,11144222' 
ADCP,ioos:station:wmo:42887:1,2011-05-02T02:00:00Z,28.1910,-88.4960,48.2,9.4,142.0,99.0,'11111222,11111222,11144222' 
ADCP,ioos:station:wmo:42887:1,2011-05-02T02:20:00Z,28.1910,-88.4960,48.2,9.2,141.0,99.0,'11111222,11111222,11144222' 
ADCP,ioos:station:wmo:42887:1,2011-05-02T02:40:00Z,28.1910,-88.4960,48.2,7.2,158.0,99.0,'11111222,11111222,11144222' 
ADCP,ioos:station:wmo:42887:1,2011-05-02T03:00:00Z,28.1910,-88.4960,48.2,6.2,133.0,99.0,'11111222,11111222,11144222' 
ADCP,ioos:station:wmo:42887:1,2011-05-02T03:20:00Z,28.1910,-88.4960,48.2,9.8,146.0,99.0,'11111222,11111222,11144222' 
ADCP,ioos:station:wmo:42887:1,2011-05-02T03:40:00Z,28.1910,-88.4960,48.2,9.8,130.0,99.0,'11111222,11111222,11144222' 
ADCP,ioos:station:wmo:42887:1,2011-05-02T04:00:00Z,28.1910,-88.4960,48.2,8.2,131.0,99.0,'11111222,11111222,11144222' 
ADCP,ioos:station:wmo:42887:1,2011-05-02T04:20:00Z,28.1910,-88.4960,48.2,10.4,150.0,99.0,'11111222,11111222,11144222' 
ADCP,ioos:station:wmo:42887:1,2011-05-02T04:40:00Z,28.1910,-88.4960,48.2,11.1,135.0,99.0,'11111222,11111222,11144222' 
ADCP,ioos:station:wmo:42887:1,2011-05-02T05:00:00Z,28.1910,-88.4960,48.2,6.1,128.0,99.0,'11111222,11111222,11144222' 
ADCP,ioos:station:wmo:42887:1,2011-05-02T05:20:00Z,28.1910,-88.4960,48.2,10.2,155.0,99.0,'11111222,11111222,11144222' 
ADCP,ioos:station:wmo:42887:1,2011-05-02T05:40:00Z,28.1910,-88.4960,48.2,10.6,149.0,99.0,'11111222,11111222,11144222' 
ADCP,ioos:station:wmo:42887:1,2011-05-02T06:00:00Z,28.1910,-88.4960,48.2,10.5,131.0,99.0,'11111222,11111222,11144222' 
ADCP,ioos:station:wmo:42887:1,2011-05-02T06:20:00Z,28.1910,-88.4960,48.2,8.3,125.0,99.0,'11111222,11111222,11144222' 
ADCP,ioos:station:wmo:42887:1,2011-05-02T06:40:00Z,28.1910,-88.4960,48.2,6.5,144.0,99.0,'11111222,11111222,11144222' 
ADCP,ioos:station:wmo:42887:1,2011-05-02T07:00:00Z,28.1910,-88.4960,48.2,6.8,165.0,99.0,'11111222,11111222,11144222' 
ADCP,ioos:station:wmo:42887:1,2011-05-02T07:20:00Z,28.1910,-88.4960,48.2,7.1,177.0,99.0,'11111222,11111222,11144222' 
ADCP,ioos:station:wmo:42887:1,2011-05-02T07:40:00Z,28.1910,-88.4960,48.2,6.1,166.0,99.0,'11111222,11111222,11144222' 
ADCP,ioos:station:wmo:42887:1,2011-05-02T08:00:00Z,28.1910,-88.4960,48.2,5.6,162.0,99.0,'11111222,11111222,11144222' 
ADCP,ioos:station:wmo:42887:1,2011-05-02T08:20:00Z,28.1910,-88.4960,48.2,5.3,173.0,99.0,'11111222,11111222,11144222' 
ADCP,ioos:station:wmo:42887:1,2011-05-02T08:40:00Z,28.1910,-88.4960,48.2,7.6,147.0,99.0,'11111222,11111222,11144222' 
ADCP,ioos:station:wmo:42887:1,2011-05-02T09:00:00Z,28.1910,-88.4960,48.2,5.2,155.0,99.0,'11111222,11111222,11144222' 
ADCP,ioos:station:wmo:42887:1,2011-05-02T09:20:00Z,28.1910,-88.4960,48.2,4.6,171.0,99.0,'11111222,11111222,11144222' 
ADCP,ioos:station:wmo:42887:1,2011-05-02T09:40:00Z,28.1910,-88.4960,48.2,6.4,169.0,99.0,'11111222,11111222,11144222' 
ADCP,ioos:station:wmo:42887:1,2011-05-02T10:00:00Z,28.1910,-88.4960,48.2,6.7,169.0,99.0,'11111222,11111222,11144222' 
ADCP,ioos:station:wmo:42887:1,2011-05-02T10:20:00Z,28.1910,-88.4960,48.2,6.2,144.0,99.0,'11111222,11111222,11144222' 
ADCP,ioos:station:wmo:42887:1,2011-05-02T10:40:00Z,28.1910,-88.4960,48.2,4.3,186.0,99.0,'11111222,11111222,11144222' 
ADCP,ioos:station:wmo:42887:1,2011-05-02T11:00:00Z,28.1910,-88.4960,48.2,5.0,155.0,99.0,'11111222,11111222,11144222' 
ADCP,ioos:station:wmo:42887:1,2011-05-02T11:20:00Z,28.1910,-88.4960,48.2,5.2,177.0,99.0,'11111222,11111222,11144222' 
ADCP,ioos:station:wmo:42887:1,2011-05-02T11:40:00Z,28.1910,-88.4960,48.2,5.5,148.0,99.0,'11111222,11111222,11144222' 
ADCP,ioos:station:wmo:42887:1,2011-05-02T12:00:00Z,28.1910,-88.4960,48.2,3.7,145.0,99.0,'11111222,11111222,11144222' 
ADCP,ioos:station:wmo:42887:1,2011-05-02T12:20:00Z,28.1910,-88.4960,48.2,4.5,152.0,99.0,'11111222,11111222,11144222' 
ADCP,ioos:station:wmo:42887:1,2011-05-02T12:40:00Z,28.1910,-88.4960,48.2,7.9,140.0,99.0,'11111222,11111222,11144222' 
ADCP,ioos:station:wmo:42887:1,2011-05-02T13:00:00Z,28.1910,-88.4960,48.2,9.9,136.0,99.0,'11111222,11111222,11144222' 
ADCP,ioos:station:wmo:42887:1,2011-05-02T13:20:00Z,28.1910,-88.4960,48.2,9.5,157.0,99.0,'11111222,11111222,11144222' 
ADCP,ioos:station:wmo:42887:1,2011-05-02T13:40:00Z,28.1910,-88.4960,48.2,10.1,148.0,99.0,'11111222,11111222,11144222' 
ADCP,ioos:station:wmo:42887:1,2011-05-02T14:00:00Z,28.1910,-88.4960,48.2,9.4,151.0,99.0,'11111222,11111222,11144222' 
ADCP,ioos:station:wmo:42887:1,2011-05-02T14:20:00Z,28.1910,-88.4960,48.2,7.8,149.0,99.0,'11111222,11111222,11144222' 
ADCP,ioos:station:wmo:42887:1,2011-05-02T14:40:00Z,28.1910,-88.4960,48.2,7.4,145.0,99.0,'11111222,11111222,11144222' 
ADCP,ioos:station:wmo:42887:1,2011-05-02T15:00:00Z,28.1910,-88.4960,48.2,6.4,151.0,99.0,'11111222,11111222,11144222' 
ADCP,ioos:station:wmo:42887:1,2011-05-02T15:20:00Z,28.1910,-88.4960,48.2,6.4,155.0,99.0,'11111222,11111222,11144222' 
ADCP,ioos:station:wmo:42887:1,2011-05-02T15:40:00Z,28.1910,-88.4960,48.2,5.7,150.0,99.0,'11111222,11111222,11144222' 
ADCP,ioos:station:wmo:42887:1,2011-05-02T16:00:00Z,28.1910,-88.4960,48.2,5.2,150.0,99.0,'11111222,11111222,11144222' 
ADCP,ioos:station:wmo:42887:1,2011-05-02T16:20:00Z,28.1910,-88.4960,48.2,4.8,148.0,99.0,'11111222,11111222,11144222' 
ADCP,ioos:station:wmo:42887:1,2011-05-02T16:40:00Z,28.1910,-88.4960,48.2,5.0,150.0,99.0,'11111222,11111222,11144222' 
ADCP,ioos:station:wmo:42887:1,2011-05-02T17:00:00Z,28.1910,-88.4960,48.2,4.9,136.0,99.0,'11111222,11111222,11144222' 
ADCP,ioos:station:wmo:42887:1,2011-05-02T17:20:00Z,28.1910,-88.4960,48.2,5.2,142.0,99.0,'11111222,11111222,11144222' 
ADCP,ioos:station:wmo:42887:1,2011-05-02T17:40:00Z,28.1910,-88.4960,48.2,5.4,142.0,99.0,'11111222,11111222,11144222' 
ADCP,ioos:station:wmo:42887:1,2011-05-02T18:00:00Z,28.1910,-88.4960,48.2,5.3,147.0,99.0,'11111222,11111222,11144222' 
ADCP,ioos:station:wmo:42887:1,2011-05-02T18:20:00Z,28.1910,-88.4960,48.2,5.2,136.0,99.0,'11111222,11111222,11144222' 
ADCP,ioos:station:wmo:42887:1,2011-05-02T18:40:00Z,28.1910,-88.4960,48.2,5.6,137.0,99.0,'11111222,11111222,11144222' 
ADCP,ioos:station:wmo:42887:1,2011-05-02T19:00:00Z,28.1910,-88.4960,48.2,5.7,131.0,99.0,'11111222,11111222,11144222' 
ADCP,ioos:station:wmo:42887:1,2011-05-02T19:20:00Z,28.1910,-88.4960,48.2,5.2,131.0,99.0,'11111222,11111222,11144222' 
ADCP,ioos:station:wmo:42887:1,2011-05-02T19:40:00Z,28.1910,-88.4960,48.2,4.8,127.0,99.0,'11111222,11111222,11144222' 
ADCP,ioos:station:wmo:42887:1,2011-05-02T20:00:00Z,28.1910,-88.4960,48.2,5.2,126.0,99.0,'11111222,11111222,11144222' 
ADCP,ioos:station:wmo:42887:1,2011-05-02T20:20:00Z,28.1910,-88.4960,48.2,5.9,124.0,99.0,'11111222,11111222,11144222' 
ADCP,ioos:station:wmo:42887:1,2011-05-02T20:40:00Z,28.1910,-88.4960,48.2,5.6,124.0,99.0,'11111222,11111222,11144222' 
ADCP,ioos:station:wmo:42887:1,2011-05-02T21:00:00Z,28.1910,-88.4960,48.2,5.6,127.0,99.0,'11111222,11111222,11144222' 
ADCP,ioos:station:wmo:42887:1,2011-05-02T21:20:00Z,28.1910,-88.4960,48.2,6.0,121.0,99.0,'11111222,11111222,11144222' 
ADCP,ioos:station:wmo:42887:1,2011-05-02T21:40:00Z,28.1910,-88.4960,48.2,6.4,124.0,99.0,'11111222,11111222,11144222' 
ADCP,ioos:station:wmo:42887:1,2011-05-02T22:00:00Z,28.1910,-88.4960,48.2,6.6,126.0,99.0,'11111222,11111222,11144222' 
ADCP,ioos:station:wmo:42887:1,2011-05-02T22:20:00Z,28.1910,-88.4960,48.2,6.6,130.0,99.0,'11111222,11111222,11144222' 
ADCP,ioos:station:wmo:42887:1,2011-05-02T23:00:00Z,28.1910,-88.4960,48.2,6.0,125.0,99.0,'11111222,11111222,11144222' 
ADCP,ioos:station:wmo:42887:1,2011-05-02T23:20:00Z,28.1910,-88.4960,48.2,7.1,121.0,99.0,'11111222,11111222,11144222' 
ADCP,ioos:station:wmo:42887:1,2011-05-02T23:40:00Z,28.1910,-88.4960,48.2,7.5,127.0,99.0,'11111222,11111222,11144222' 
ADCP,ioos:station:wmo:42887:1,2011-05-03T00:00:00Z,28.1910,-88.4960,48.2,6.9,126.0,99.0,'11111222,11111222,11144222' 
ADCP,ioos:station:wmo:42887:1,2011-05-03T00:20:00Z,28.1910,-88.4960,48.2,6.7,133.0,99.0,'11111222,11111222,11144222' 
ADCP,ioos:station:wmo:42887:1,2011-05-03T00:40:00Z,28.1910,-88.4960,48.2,7.1,139.0,99.0,'11111222,11111222,11144222' 
ADCP,ioos:station:wmo:42887:1,2011-05-03T01:00:00Z,28.1910,-88.4960,48.2,6.8,135.0,99.0,'11111222,11111222,11144222' 
ADCP,ioos:station:wmo:42887:1,2011-05-03T01:20:00Z,28.1910,-88.4960,48.2,6.4,132.0,99.0,'11111222,11111222,11144222' 
ADCP,ioos:station:wmo:42887:1,2011-05-03T01:40:00Z,28.1910,-88.4960,48.2,7.1,148.0,99.0,'11111222,11111222,11144222' 
ADCP,ioos:station:wmo:42887:1,2011-05-03T02:00:00Z,28.1910,-88.4960,48.2,5.5,144.0,99.0,'11111222,11111222,11144222' 
ADCP,ioos:station:wmo:42887:1,2011-05-03T02:20:00Z,28.1910,-88.4960,48.2,5.6,133.0,99.0,'11111222,11111222,11144222' 
ADCP,ioos:station:wmo:42887:1,2011-05-03T02:40:00Z,28.1910,-88.4960,48.2,5.8,130.0,99.0,'11111222,11111222,11144222' 
ADCP,ioos:station:wmo:42887:1,2011-05-03T03:00:00Z,28.1910,-88.4960,48.2,6.6,127.0,99.0,'11111222,11111222,11144222' 
ADCP,ioos:station:wmo:42887:1,2011-05-03T03:20:00Z,28.1910,-88.4960,48.2,5.4,130.0,99.0,'11111222,11111222,11144222' 
ADCP,ioos:station:wmo:42887:1,2011-05-03T04:00:00Z,28.1910,-88.4960,48.2,6.4,130.0,99.0,'11111222,11111222,11144222' 
ADCP,ioos:station:wmo:42887:1,2011-05-03T04:20:00Z,28.1910,-88.4960,48.2,5.8,145.0,99.0,'11111222,11111222,11144222' 
ADCP,ioos:station:wmo:42887:1,2011-05-03T04:40:00Z,28.1910,-88.4960,48.2,5.3,137.0,99.0,'11111222,11111222,11144222' 
ADCP,ioos:station:wmo:42887:1,2011-05-03T05:00:00Z,28.1910,-88.4960,48.2,4.7,144.0,99.0,'11111222,11111222,11144222' 
ADCP,ioos:station:wmo:42887:1,2011-05-03T05:20:00Z,28.1910,-88.4960,48.2,6.2,149.0,99.0,'11111222,11111222,11144222' 
ADCP,ioos:station:wmo:42887:1,2011-05-03T05:40:00Z,28.1910,-88.4960,48.2,5.7,148.0,99.0,'11111222,11111222,11144222' 
ADCP,ioos:station:wmo:42887:1,2011-05-03T06:00:00Z,28.1910,-88.4960,48.2,5.5,162.0,99.0,'11111222,11111222,11144222' 
ADCP,ioos:station:wmo:42887:1,2011-05-03T06:20:00Z,28.1910,-88.4960,48.2,5.9,164.0,99.0,'11111222,11111222,11144222' 
ADCP,ioos:station:wmo:42887:1,2011-05-03T06:40:00Z,28.1910,-88.4960,48.2,5.8,164.0,99.0,'11111222,11111222,11144222' 
ADCP,ioos:station:wmo:42887:1,2011-05-03T07:00:00Z,28.1910,-88.4960,48.2,5.6,168.0,99.0,'11111222,11111222,11144222' 
ADCP,ioos:station:wmo:42887:1,2011-05-03T07:20:00Z,28.1910,-88.4960,48.2,5.5,168.0,99.0,'11111222,11111222,11144222' 
ADCP,ioos:station:wmo:42887:1,2011-05-03T07:40:00Z,28.1910,-88.4960,48.2,5.2,171.0,99.0,'11111222,11111222,11144222' 
ADCP,ioos:station:wmo:42887:1,2011-05-03T08:00:00Z,28.1910,-88.4960,48.2,5.2,164.0,99.0,'11111222,11111222,11144222' 
ADCP,ioos:station:wmo:42887:1,2011-05-03T08:20:00Z,28.1910,-88.4960,48.2,5.6,164.0,99.0,'11111222,11111222,11144222' 
ADCP,ioos:station:wmo:42887:1,2011-05-03T08:40:00Z,28.1910,-88.4960,48.2,6.1,165.0,99.0,'11111222,11111222,11144222' 
ADCP,ioos:station:wmo:42887:1,2011-05-03T09:00:00Z,28.1910,-88.4960,48.2,5.9,169.0,99.0,'11111222,11111222,11144222' 
ADCP,ioos:station:wmo:42887:1,2011-05-03T09:20:00Z,28.1910,-88.4960,48.2,5.3,169.0,99.0,'11111222,11111222,11144222' 
ADCP,ioos:station:wmo:42887:1,2011-05-03T09:40:00Z,28.1910,-88.4960,48.2,5.2,170.0,99.0,'11111222,11111222,11144222' 
ADCP,ioos:station:wmo:42887:1,2011-05-03T10:00:00Z,28.1910,-88.4960,48.2,4.4,170.0,99.0,'11111222,11111222,11144222' 
ADCP,ioos:station:wmo:42887:1,2011-05-03T10:20:00Z,28.1910,-88.4960,48.2,4.9,170.0,99.0,'11111222,11111222,11144222' 
ADCP,ioos:station:wmo:42887:1,2011-05-03T10:40:00Z,28.1910,-88.4960,48.2,4.7,174.0,99.0,'11111222,11111222,11144222' 
ADCP,ioos:station:wmo:42887:1,2011-05-03T11:00:00Z,28.1910,-88.4960,48.2,5.5,170.0,99.0,'11111222,11111222,11144222' 
ADCP,ioos:station:wmo:42887:1,2011-05-03T11:20:00Z,28.1910,-88.4960,48.2,5.8,173.0,99.0,'11111222,11111222,11144222' 
ADCP,ioos:station:wmo:42887:1,2011-05-03T11:40:00Z,28.1910,-88.4960,48.2,5.6,173.0,99.0,'11111222,11111222,11144222' 
ADCP,ioos:station:wmo:42887:1,2011-05-03T12:00:00Z,28.1910,-88.4960,48.2,4.6,167.0,99.0,'11111222,11111222,11144222' 
ADCP,ioos:station:wmo:42887:1,2011-05-03T12:20:00Z,28.1910,-88.4960,48.2,5.1,176.0,99.0,'11111222,11111222,11144222' 
ADCP,ioos:station:wmo:42887:1,2011-05-03T12:40:00Z,28.1910,-88.4960,48.2,5.5,171.0,99.0,'11111222,11111222,11144222' 
ADCP,ioos:station:wmo:42887:1,2011-05-03T13:00:00Z,28.1910,-88.4960,48.2,5.2,169.0,99.0,'11111222,11111222,11144222' 
ADCP,ioos:station:wmo:42887:1,2011-05-03T13:20:00Z,28.1910,-88.4960,48.2,4.9,170.0,99.0,'11111222,11111222,11144222' 
ADCP,ioos:station:wmo:42887:1,2011-05-03T13:40:00Z,28.1910,-88.4960,48.2,4.7,172.0,99.0,'11111222,11111222,11144222' 
ADCP,ioos:station:wmo:42887:1,2011-05-03T14:00:00Z,28.1910,-88.4960,48.2,4.2,174.0,99.0,'11111222,11111222,11144222' 
ADCP,ioos:station:wmo:42887:1,2011-05-03T14:20:00Z,28.1910,-88.4960,48.2,3.7,182.0,99.0,'11111222,11111222,11144222' 
ADCP,ioos:station:wmo:42887:1,2011-05-03T14:40:00Z,28.1910,-88.4960,48.2,3.5,192.0,99.0,'11111222,11111222,11144222' 
ADCP,ioos:station:wmo:42887:1,2011-05-03T15:00:00Z,28.1910,-88.4960,48.2,5.3,193.0,99.0,'11111222,11111222,11144222' 
ADCP,ioos:station:wmo:42887:1,2011-05-03T15:20:00Z,28.1910,-88.4960,48.2,5.5,198.0,99.0,'11111222,11111222,11144222' 
ADCP,ioos:station:wmo:42887:1,2011-05-03T16:00:00Z,28.1910,-88.4960,48.2,4.6,198.0,99.0,'11111222,11111222,11144222' 
ADCP,ioos:station:wmo:42887:1,2011-05-03T16:20:00Z,28.1910,-88.4960,48.2,4.4,203.0,99.0,'11111222,11111222,11144222' 
ADCP,ioos:station:wmo:42887:1,2011-05-03T16:40:00Z,28.1910,-88.4960,48.2,4.8,203.0,99.0,'11111222,11111222,11144222' 
ADCP,ioos:station:wmo:42887:1,2011-05-03T17:00:00Z,28.1910,-88.4960,48.2,5.0,204.0,99.0,'11111222,11111222,11144222' 
ADCP,ioos:station:wmo:42887:1,2011-05-03T17:20:00Z,28.1910,-88.4960,48.2,5.1,204.0,99.0,'11111222,11111222,11144222' 
ADCP,ioos:station:wmo:42887:1,2011-05-03T17:40:00Z,28.1910,-88.4960,48.2,4.3,205.0,99.0,'11111222,11111222,11144222' 
ADCP,ioos:station:wmo:42887:1,2011-05-03T18:00:00Z,28.1910,-88.4960,48.2,3.7,209.0,99.0,'11111222,11111222,11144222' 
ADCP,ioos:station:wmo:42887:1,2011-05-03T18:20:00Z,28.1910,-88.4960,48.2,3.6,224.0,99.0,'11111222,11111222,11144222' 
ADCP,ioos:station:wmo:42887:1,2011-05-03T18:40:00Z,28.1910,-88.4960,48.2,3.4,231.0,99.0,'11111222,11111222,11144222' 
ADCP,ioos:station:wmo:42887:1,2011-05-03T19:00:00Z,28.1910,-88.4960,48.2,3.8,237.0,99.0,'11111222,11111222,11144222' 
ADCP,ioos:station:wmo:42887:1,2011-05-03T19:20:00Z,28.1910,-88.4960,48.2,3.3,231.0,99.0,'11111222,11111222,11144222' 
ADCP,ioos:station:wmo:42887:1,2011-05-03T19:40:00Z,28.1910,-88.4960,48.2,2.9,234.0,99.0,'11111222,11111222,11144222' 
ADCP,ioos:station:wmo:42887:1,2011-05-03T20:00:00Z,28.1910,-88.4960,48.2,2.9,226.0,99.0,'11111222,11111222,11144222' 
ADCP,ioos:station:wmo:42887:1,2011-05-03T20:20:00Z,28.1910,-88.4960,48.2,2.6,238.0,99.0,'11111222,11111222,11144222' 